When you browse on this site, cookies collect data to enhance your experience and personalize the content and advertising you see.
Visit our Privacy Policy to learn more. By continuing to use the site, you agree to this use of cookies and data.
  • en France
  • Liste des pays
  • À 7 jours
  • Température de l'eau
  • Carte météo
  • Widgets météo
  • user-avatar
    Se connecter

    Météo par heure à Ulan Hot

    Ce jour, 15 Septembre, Dimanche

    Heure Température Précipitation Vent Pression Humidité
    00:00 +15°C° 0 mm 5 m/s 733 mmHg 39%
    01:00 +15°C° 0 mm 5 m/s 733 mmHg 38%
    02:00 +15°C° 0 mm 6 m/s 732 mmHg 37%
    03:00 +14°C° 0 mm 6 m/s 732 mmHg 37%
    04:00 +14°C° 0 mm 5 m/s 731 mmHg 37%
    05:00 +13°C° 0 mm 5 m/s 731 mmHg 38%
    06:00 +15°C° 0 mm 5 m/s 731 mmHg 37%
    07:00 +16°C° 0 mm 5 m/s 731 mmHg 36%
    08:00 +19°C° 0 mm 5 m/s 730 mmHg 35%
    09:00 +21°C° 0 mm 6 m/s 730 mmHg 31%
    10:00 +23°C° 0 mm 6 m/s 730 mmHg 27%
    11:00 +26°C° 0 mm 7 m/s 730 mmHg 23%
    12:00 +26°C° 0 mm 7 m/s 730 mmHg 27%
    13:00 +26°C° 0 mm 7 m/s 730 mmHg 31%
    14:00 +26°C° 0 mm 7 m/s 731 mmHg 35%
    15:00 +22°C° 0.4 mm 6 m/s 732 mmHg 38%
    16:00 +20°C° 0.4 mm 6 m/s 732 mmHg 42%
    17:00 +17°C° 0.4 mm 5 m/s 733 mmHg 45%
    18:00 +15°C° 0 mm 5 m/s 734 mmHg 40%
    19:00 +12°C° 0 mm 5 m/s 736 mmHg 34%
    20:00 +9°C° 0 mm 5 m/s 737 mmHg 29%
    21:00 +8°C° 0 mm 4 m/s 737 mmHg 29%
    22:00 +7°C° 0 mm 3 m/s 738 mmHg 30%
    23:00 +5°C° 0 mm 3 m/s 739 mmHg 31%

    Demain, 16 Septembre, Lundi

    Heure Température Précipitation Vent Pression Humidité
    00:00 +5°C° 0 mm 2 m/s 739 mmHg 31%
    01:00 +5°C° 0 mm 2 m/s 739 mmHg 32%
    02:00 +4°C° 0 mm 2 m/s 740 mmHg 32%
    03:00 +4°C° 0 mm 2 m/s 740 mmHg 32%
    04:00 +4°C° 0 mm 2 m/s 740 mmHg 33%
    05:00 +4°C° 0 mm 2 m/s 740 mmHg 33%
    06:00 +6°C° 0 mm 2 m/s 740 mmHg 31%
    07:00 +8°C° 0 mm 3 m/s 740 mmHg 29%
    08:00 +10°C° 0 mm 3 m/s 740 mmHg 27%
    09:00 +13°C° 0 mm 3 m/s 739 mmHg 25%
    10:00 +15°C° 0 mm 4 m/s 738 mmHg 24%
    11:00 +18°C° 0 mm 4 m/s 738 mmHg 22%
    12:00 +19°C° 0 mm 4 m/s 737 mmHg 22%
    13:00 +21°C° 0 mm 5 m/s 736 mmHg 22%
    14:00 +22°C° 0 mm 5 m/s 736 mmHg 23%
    15:00 +22°C° 0 mm 5 m/s 736 mmHg 26%
    16:00 +21°C° 0 mm 4 m/s 735 mmHg 30%
    17:00 +20°C° 0 mm 4 m/s 735 mmHg 34%
    18:00 +18°C° 0 mm 3 m/s 735 mmHg 36%
    19:00 +16°C° 0 mm 3 m/s 735 mmHg 38%
    20:00 +14°C° 0 mm 2 m/s 735 mmHg 39%
    21:00 +13°C° 0 mm 2 m/s 735 mmHg 41%
    22:00 +13°C° 0 mm 2 m/s 735 mmHg 42%
    23:00 +12°C° 0 mm 2 m/s 735 mmHg 44%

    Après-demain, 17 Septembre, Mardi

    Heure Température Précipitation Vent Pression Humidité
    00:00 +12°C° 0 mm 2 m/s 735 mmHg 44%
    01:00 +10°C° 0 mm 3 m/s 734 mmHg 45%
    02:00 +10°C° 0 mm 3 m/s 734 mmHg 46%
    03:00 +10°C° 0 mm 3 m/s 733 mmHg 46%
    04:00 +9°C° 0 mm 3 m/s 733 mmHg 47%
    05:00 +9°C° 0 mm 3 m/s 732 mmHg 48%
    06:00 +11°C° 0 mm 4 m/s 732 mmHg 45%
    07:00 +13°C° 0 mm 5 m/s 732 mmHg 42%
    08:00 +16°C° 0 mm 6 m/s 732 mmHg 39%
    09:00 +16°C° 0 mm 7 m/s 733 mmHg 42%
    10:00 +16°C° 0 mm 8 m/s 733 mmHg 46%
    11:00 +16°C° 0 mm 9 m/s 733 mmHg 49%
    12:00 +16°C° 0.2 mm 8 m/s 733 mmHg 43%
    13:00 +15°C° 0.2 mm 8 m/s 733 mmHg 36%
    14:00 +15°C° 0.2 mm 8 m/s 734 mmHg 30%
    15:00 +13°C° 0 mm 8 m/s 734 mmHg 30%
    16:00 +13°C° 0 mm 8 m/s 735 mmHg 31%
    17:00 +12°C° 0 mm 8 m/s 735 mmHg 31%
    18:00 +11°C° 0 mm 7 m/s 736 mmHg 34%
    19:00 +10°C° 0 mm 7 m/s 737 mmHg 37%
    20:00 +9°C° 0 mm 6 m/s 737 mmHg 39%
    21:00 +8°C° 0 mm 6 m/s 738 mmHg 42%
    22:00 +7°C° 0 mm 5 m/s 738 mmHg 45%
    23:00 +6°C° 0 mm 4 m/s 739 mmHg 48%

    18 Septembre, Mercredi

    Heure Température Précipitation Vent Pression Humidité
    00:00 +5°C° 0 mm 4 m/s 739 mmHg 46%
    01:00 +5°C° 0 mm 4 m/s 739 mmHg 45%
    02:00 +4°C° 0 mm 4 m/s 739 mmHg 43%
    03:00 +3°C° 0 mm 5 m/s 740 mmHg 42%
    04:00 +3°C° 0 mm 5 m/s 740 mmHg 40%
    05:00 +2°C° 0 mm 5 m/s 740 mmHg 39%
    06:00 +5°C° 0 mm 5 m/s 740 mmHg 37%
    07:00 +7°C° 0 mm 5 m/s 740 mmHg 35%
    08:00 +9°C° 0 mm 5 m/s 740 mmHg 33%
    09:00 +12°C° 0 mm 5 m/s 740 mmHg 31%
    10:00 +13°C° 0 mm 6 m/s 739 mmHg 28%
    11:00 +15°C° 0 mm 6 m/s 739 mmHg 25%
    12:00 +16°C° 0 mm 6 m/s 739 mmHg 24%
    13:00 +16°C° 0 mm 7 m/s 739 mmHg 22%
    14:00 +17°C° 0 mm 7 m/s 738 mmHg 21%
    15:00 +16°C° 0 mm 6 m/s 738 mmHg 22%
    16:00 +15°C° 0 mm 5 m/s 739 mmHg 24%
    17:00 +14°C° 0 mm 4 m/s 739 mmHg 26%
    18:00 +12°C° 0 mm 4 m/s 739 mmHg 27%
    19:00 +10°C° 0 mm 4 m/s 740 mmHg 29%
    20:00 +8°C° 0 mm 3 m/s 740 mmHg 30%
    21:00 +7°C° 0 mm 3 m/s 741 mmHg 32%
    22:00 +5°C° 0 mm 3 m/s 741 mmHg 34%
    23:00 +5°C° 0 mm 3 m/s 742 mmHg 36%

    19 Septembre, Jeudi

    Heure Température Précipitation Vent Pression Humidité
    00:00 +4°C° 0 mm 3 m/s 742 mmHg 39%
    01:00 +4°C° 0 mm 3 m/s 742 mmHg 41%
    02:00 +3°C° 0 mm 3 m/s 742 mmHg 43%
    03:00 +3°C° 0 mm 3 m/s 742 mmHg 43%
    04:00 +3°C° 0 mm 3 m/s 742 mmHg 44%
    05:00 +2°C° 0 mm 3 m/s 742 mmHg 44%
    06:00 +5°C° 0 mm 3 m/s 742 mmHg 40%
    07:00 +7°C° 0 mm 4 m/s 742 mmHg 37%
    08:00 +10°C° 0 mm 4 m/s 742 mmHg 33%
    09:00 +11°C° 0 mm 3 m/s 742 mmHg 29%
    10:00 +13°C° 0 mm 3 m/s 741 mmHg 25%
    11:00 +16°C° 0 mm 2 m/s 741 mmHg 21%
    12:00 +17°C° 0 mm 2 m/s 740 mmHg 20%
    13:00 +18°C° 0 mm 2 m/s 740 mmHg 18%
    14:00 +19°C° 0 mm 1 m/s 739 mmHg 17%
    15:00 +18°C° 0 mm 2 m/s 739 mmHg 21%
    16:00 +17°C° 0 mm 2 m/s 739 mmHg 24%
    17:00 +17°C° 0 mm 2 m/s 739 mmHg 27%
    18:00 +15°C° 0 mm 2 m/s 739 mmHg 28%
    19:00 +13°C° 0 mm 2 m/s 739 mmHg 28%
    20:00 +12°C° 0 mm 2 m/s 739 mmHg 28%
    21:00 +12°C° 0 mm 2 m/s 739 mmHg 27%
    22:00 +12°C° 0 mm 2 m/s 739 mmHg 27%
    23:00 +12°C° 0 mm 2 m/s 739 mmHg 26%

    20 Septembre, Vendredi

    Heure Température Précipitation Vent Pression Humidité
    00:00 +12°C° 0 mm 1 m/s 739 mmHg 27%
    01:00 +12°C° 0 mm 1 m/s 739 mmHg 27%
    02:00 +11°C° 0 mm 1 m/s 739 mmHg 28%
    03:00 +11°C° 0 mm 1 m/s 739 mmHg 29%
    04:00 +11°C° 0 mm 1 m/s 738 mmHg 29%
    05:00 +12°C° 0 mm 2 m/s 738 mmHg 30%
    06:00 +12°C° 0 mm 2 m/s 738 mmHg 32%
    07:00 +12°C° 0 mm 2 m/s 738 mmHg 33%
    08:00 +13°C° 0 mm 2 m/s 738 mmHg 35%
    09:00 +14°C° 0 mm 2 m/s 738 mmHg 38%
    10:00 +14°C° 0 mm 3 m/s 738 mmHg 41%
    11:00 +16°C° 0 mm 3 m/s 738 mmHg 44%
    12:00 +15°C° 0 mm 4 m/s 737 mmHg 43%
    13:00 +17°C° 0 mm 4 m/s 737 mmHg 42%
    14:00 +17°C° 0 mm 4 m/s 737 mmHg 41%
    15:00 +15°C° 0.1 mm 4 m/s 737 mmHg 47%
    16:00 +14°C° 0.1 mm 4 m/s 737 mmHg 53%
    17:00 +13°C° 0.1 mm 4 m/s 737 mmHg 60%
    18:00 +12°C° 0 mm 3 m/s 738 mmHg 59%
    19:00 +11°C° 0 mm 3 m/s 738 mmHg 59%
    20:00 +10°C° 0 mm 3 m/s 739 mmHg 59%
    21:00 +10°C° 0 mm 3 m/s 739 mmHg 60%
    22:00 +9°C° 0 mm 3 m/s 739 mmHg 61%
    23:00 +9°C° 0 mm 3 m/s 739 mmHg 62%
    Voir plus